cubair logo

For once you have tasted flight you will walk the earth with your eyes turned skywards,
for there you have been and there you will long to return.


"Leonardo da Vinci"

Cub Air Flight was founded in 2006, by Steve and Sharon Krog. Cub Air Flight school uses vintage Piper J3 Cub aircraft to instruct in, following a philosophy that “old school is still cool.” Cub Air Flight believes that these fine classic airplanes make better pilots by requiring more attention and flying skill than newer airplanes. We at Cub Air Flight hold that flying a vintage airplane is as much an art as it is a science.

The Piper J3 Cub is revered among aviators as a truly classic and iconic airplane. It has served as a trainer to more pilots than almost any airplane, earning a reputation as easy to fly but yet challenging enough to force students to continually better themselves. Cub Air uses two J3 Cubs, restored and maintained with the same attention to detail as a lovingly restored classic car. Cub Air also uses a Piper Cherokee for training requiring an aircraft with more advanced instruments.

PrintEmail

Come fly with us and feel the freedom of
flying, the way it's supposed to be!


"Old School Is Still Cool!"

Our Staff

Steve Krog
Sharon Krog
Jamie Weber
Luke Lachendro
Chris Hibben

Shop Our Store

shopping-cart-icon-515

Find Us Here!

Hartford Municipal

Airport (KHXF)

4200 Highway U

Hartford, WI 53027

Juneau Weather

[source: ADDS]
METAR
KUNU 020635Z AUTO 25003KT 2 1/2SM BR CLR 16/16 A2986 RMK AO2 T01610160 =
TAF

Fond Du Lac Weather

[source: ADDS]
METAR
KFLD 020553Z AUTO 26005KT 10SM CLR 17/16 A2984 RMK AO2 SLP102 T01720156 10206 20172 402440172 51013 =
TAF

West Bend Weather

[source: ADDS]
METAR
KETB 020635Z AUTO 00000KT 10SM CLR 17/15 A2985 RMK AO2 =
TAF

Oshkosh Weather

[source: ADDS]
METAR
KOSH 020553Z 25003KT 10SM CLR 18/16 A2984 RMK AO2 SLP095 T01780161 10217 20172 402440172 51017 =
TAF